User: anonymous   Login
Location: Bay Creek Structure Number 5 Dam
(37.4851°N, 88.6884°W)
Time: 01:33:00
(UTC+00:00)
Language:

STARLINK-40 - Orbit

View from above orbital plane
View from above orbital plane
View from above satellite
View from above satellite

Ground track
Ground track

The orbit data is extracted from the following two-line orbital elements,

1 44258U 19029Z   19340.58334491  .00028470  00000-0  16441-2 0  9997
2 44258  53.0016   9.7562 0001230  89.4865 299.8968 15.12123540 29742
Epoch (UTC): 06 December 2019 14:00:01
Eccentricity: 0.0001230
inclination: 53.0016°
perigee height: 529 km
apogee height: 530 km
right ascension of ascending node: 9.7562°
argument of perigee: 89.4865°
revolutions per day: 15.12123540
mean anomaly at epoch: 299.8968°
orbit number at epoch: 2974

The dashed part of the orbit path shows where the satellite is in the earth's shadow,  

DLR